Anchorage Merrill, AK

5:36 PM AKDT on May 22, 2018 (GMT -0800)
Merrill

Weather History for PAMR - March, 2013

Change the Weather History Date:

Monday, March 11, 2013

  Actual Average Record
Temperature  
Mean Temperature 28 °F -  
Max Temperature 35 °F 31 °F 46 °F (2005)
Min Temperature 21 °F 14 °F -4 °F (2006)
Degree Days  
Heating Degree Days 37    
Moisture  
Dew Point 23 °F    
Average Humidity 80    
Maximum Humidity 100    
Minimum Humidity 40    
Precipitation  
Precipitation 0.00 in - - ()
Snow  
Snow 0.00 in - - ()
Snow Depth 11.00 in    
Sea Level Pressure  
Sea Level Pressure 30.25 in    
Wind  
Wind Speed 4 mph (NNE)    
Max Wind Speed 21 mph    
Max Gust Speed 32 mph    
Visibility 9 miles    
Events Snow    
Averages and records for this station are not official NWS values.
T = Trace of Precipitation, MM = Missing Value Source: NWS Daily Summary

Daily Weather History Graph

Daily Weather History Graph

Search for Another Location

Airport or City:

Astronomy

Mar. 11, 2013 Rise Set
Actual Time 8:27 AM AKDT 7:52 PM AKDT
Civil Twilight 7:44 AM AKDT 8:35 PM AKDT
Nautical Twilight 6:54 AM AKDT 9:26 PM AKDT
Astronomical Twilight 6:00 AM AKDT 10:19 PM AKDT
Moon 7:57 AM AKDT (3/11) 8:34 PM AKDT (3/11)
Length of Visible Light 12h 50m
Length of Day
11h 24m
New Moon, 0% of the Moon is Illuminated
Mar 11
New Moon
Mar 19
First Quarter
Mar 27
Full
Apr 2
Last Quarter
Apr 10
New

Hourly Weather History & Observations

Time (AKDT) Temp. Windchill Dew Point Humidity Pressure Visibility Wind Dir Wind Speed Gust Speed Precip Events Conditions
12:09 AM 32.0 °F 28.7 °F 32.0 °F 100% 30.21 in 2.5 mi North 3.5 mph - 0.00 in Snow Light Snow
12:24 AM 32.0 °F 28.7 °F 30.2 °F 93% 30.21 in 3.0 mi North 3.5 mph - 0.00 in Snow Light Snow
12:53 AM 30.9 °F 26.2 °F 28.9 °F 92% 30.23 in 10.0 mi North 4.6 mph - 0.00 in   Overcast
1:42 AM 30.2 °F 26.7 °F 28.4 °F 93% 30.23 in 10.0 mi NE 3.5 mph - N/A   Mostly Cloudy
1:53 AM 28.9 °F 25.2 °F 27.0 °F 92% 30.24 in 10.0 mi NE 3.5 mph - N/A   Mostly Cloudy
2:53 AM 27.0 °F 23.0 °F 24.1 °F 89% 30.25 in 10.0 mi North 3.5 mph - N/A   Mostly Cloudy
3:53 AM 26.1 °F - 23.0 °F 88% 30.26 in 10.0 mi Calm Calm - N/A   Partly Cloudy
4:53 AM 23.0 °F - 21.0 °F 92% 30.26 in 10.0 mi Calm Calm - N/A   Scattered Clouds
5:53 AM 26.1 °F - 24.1 °F 92% 30.26 in 10.0 mi Calm Calm - N/A   Scattered Clouds
6:53 AM 21.9 °F - 21.9 °F 100% 30.27 in 10.0 mi Calm Calm - N/A   Scattered Clouds
6:56 AM 23.0 °F - 21.2 °F 93% 30.26 in 10.0 mi Calm Calm - N/A   Mostly Cloudy
7:16 AM 26.6 °F - 24.8 °F 93% 30.26 in 10.0 mi Calm Calm - N/A   Partly Cloudy
7:53 AM 25.0 °F 20.7 °F 21.9 °F 88% 30.27 in 10.0 mi North 3.5 mph - N/A   Scattered Clouds
8:53 AM 24.1 °F 17.0 °F 21.9 °F 91% 30.27 in 10.0 mi North 5.8 mph - N/A   Clear
9:19 AM 24.8 °F 16.1 °F 23.0 °F 93% 30.27 in 0.8 mi North 8.1 mph - N/A   Mist
9:26 AM 24.8 °F 17.9 °F 23.0 °F 93% 30.27 in 0.8 mi North 5.8 mph - N/A   Overcast
9:53 AM 25.0 °F 20.7 °F 24.1 °F 96% 30.29 in 3.0 mi North 3.5 mph - N/A   Overcast
9:59 AM 24.8 °F 20.5 °F 24.8 °F 100% 30.28 in 10.0 mi North 3.5 mph - N/A   Mostly Cloudy
10:53 AM 27.0 °F 21.6 °F 24.1 °F 89% 30.30 in 7.0 mi NNE 4.6 mph - N/A   Scattered Clouds
11:53 AM 27.0 °F 23.0 °F 23.0 °F 85% 30.30 in 7.0 mi North 3.5 mph - N/A   Mostly Cloudy
12:53 PM 28.0 °F 21.7 °F 23.0 °F 81% 30.30 in 10.0 mi NE 5.8 mph - N/A   Scattered Clouds
1:53 PM 28.9 °F 23.9 °F 23.0 °F 78% 30.30 in 10.0 mi ENE 4.6 mph - N/A   Clear
2:53 PM 30.9 °F 27.5 °F 21.9 °F 69% 30.29 in 10.0 mi East 3.5 mph - N/A   Partly Cloudy
3:53 PM 30.9 °F 26.2 °F 23.0 °F 72% 30.27 in 10.0 mi East 4.6 mph - N/A   Clear
4:53 PM 33.1 °F - 23.0 °F 66% 30.26 in 10.0 mi Calm Calm - N/A   Clear
5:53 PM 34.0 °F - 23.0 °F 64% 30.25 in 10.0 mi Calm Calm - N/A   Clear
6:53 PM 35.1 °F - 24.1 °F 64% 30.23 in 10.0 mi Calm Calm - N/A   Clear
7:53 PM 34.0 °F 27.2 °F 17.1 °F 50% 30.23 in 10.0 mi NNW 8.1 mph - N/A   Clear
8:53 PM 33.1 °F 23.9 °F 15.1 °F 48% 30.22 in 10.0 mi North 12.7 mph - N/A   Clear
9:53 PM 33.1 °F 23.4 °F 12.9 °F 43% 30.22 in 10.0 mi North 13.8 mph 23.0 mph N/A   Clear
10:53 PM 33.1 °F 21.2 °F 10.9 °F 40% 30.20 in 10.0 mi NNE 20.7 mph 32.2 mph N/A   Clear
11:53 PM 30.9 °F 19.8 °F 12.0 °F 46% 30.20 in 10.0 mi North 16.1 mph 23.0 mph N/A   Clear